Location: Muenchen
(48.1800°N, 11.5800°E)
Time: 09:04:53
(UTC+02:00)

Iridium 36 - Visible Passes

Search period start: 27 April 2015 00:00
Search period end: 07 May 2015 00:00
Orbit: 772 x 775 km, 86.4° (Epoch: 26 April)

Date Brightness Start Highest point End Pass type
(mag) Time Alt. Az. Time Alt. Az. Time Alt. Az.
27 Apr 8.3 04:41:07 10° ESE 04:44:18 17° ENE 04:47:40 10° NE visible
29 Apr 7.2 05:10:30 10° SSE 05:15:13 38° E 05:20:01 10° NNE visible
30 Apr 8.1 04:36:56 10° SE 04:40:47 22° E 04:44:46 10° NNE visible
01 May 8.5 04:04:27 10° E 04:06:27 13° ENE 04:08:44 10° NE visible
02 May 6.6 05:06:48 10° SSE 05:11:47 49° E 05:16:47 10° NNE visible
03 May 7.6 04:32:58 10° SE 04:37:17 28° E 04:41:42 10° NNE visible
04 May 8.2 03:59:51 10° ESE 04:02:54 16° ENE 04:06:09 10° NE visible
05 May 6.1 05:03:13 10° S 05:08:20 64° E 05:13:30 10° N visible
06 May 7.1 04:29:07 10° SSE 04:33:48 36° E 04:38:33 10° NNE visible
